Stations météo

réclame
Mon MeteoGroup
Alghero, Italie (16520): Température de l'air & dewpoint: 15.01.2019 17:00:00 - 21.01.2019 17:00:00 (CET)Alghero, Italie (16520): Vitesse du vent: 15.01.2019 17:00:00 - 21.01.2019 17:00:00 (CET)Alghero, Italie (16520): Direction du vent: 15.01.2019 17:00:00 - 21.01.2019 17:00:00 (CET)Alghero, Italie (16520): reduced air pressure: 15.01.2019 17:00:00 - 21.01.2019 17:00:00 (CET)Alghero, Italie (16520): visibility: 15.01.2019 17:00:00 - 21.01.2019 17:00:00 (CET)Alghero, Italie (16520): Quantités de précipitations: 15.01.2019 17:00:00 - 21.01.2019 17:00:00 (CET)
Date & Time tt [°C] td [°C] ff [km/h] ff [knt] dd ppp [hPa] vv [km] rr [mm]
21.01.2019 17:00:00 9,0 7,0 16 9 NNE - 10 -
21.01.2019 16:00:00 9,2 7,3 16 9 NNE 1009,7 10 0,0
21.01.2019 15:00:00 10,0 8,0 16 9 NNE - 10 -
21.01.2019 14:00:00 9,0 7,0 16 9 NNE - 10 -
21.01.2019 13:00:00 9,2 7,8 18 10 NE 1009,8 10 -
21.01.2019 12:00:00 9,0 8,0 21 11 NE - 10 -
21.01.2019 11:00:00 8,0 7,0 15 8 NE - 10 -
21.01.2019 10:00:00 8,0 6,8 11 6 NE 1010,2 10 0,0
21.01.2019 09:00:00 8,0 6,0 13 7 NE - 10 -
21.01.2019 08:00:00 8,0 7,0 8 4 NNE - 10 -
21.01.2019 07:00:00 7,9 6,5 11 6 NE 1009,8 10 -
21.01.2019 06:00:00 8,0 6,0 11 6 NE - 10 -
21.01.2019 05:00:00 8,0 6,0 5 3 ENE - 10 -
21.01.2019 04:00:00 7,5 6,2 9 5 NNE 1010,4 30 0,0
21.01.2019 03:00:00 8,0 6,0 8 4 NNE - 10 -
21.01.2019 02:00:00 - - - - - - - -
21.01.2019 01:00:00 8,3 5,4 8 4 N 1011,1 10 -
21.01.2019 00:00:00 8,0 5,0 8 4 N - 10 -
20.01.2019 23:00:00 8,0 5,0 5 3 N - 10 -
20.01.2019 22:00:00 7,5 5,2 5 3 NNE 1011,1 10 0,0
20.01.2019 21:00:00 8,0 5,0 9 5 NNE - 10 -
20.01.2019 20:00:00 7,0 5,0 2 1 - - 10 -
20.01.2019 19:00:00 8,0 5,5 2 1 - 1011,2 10 -
20.01.2019 18:00:00 9,0 5,0 4 2 - - 10 -
20.01.2019 17:00:00 11,0 5,0 2 1 - - 10 -
20.01.2019 16:00:00 12,6 4,5 4 2 - 1010,7 10 0,0
20.01.2019 15:00:00 13,0 4,0 4 2 - - 10 -
20.01.2019 14:00:00 13,0 4,0 4 2 - - 10 -
20.01.2019 13:00:00 12,2 4,3 4 2 - 1011,8 10 -
20.01.2019 12:00:00 12,0 6,0 5 3 E - 10 -
20.01.2019 11:00:00 10,0 8,0 4 2 - - 10 -
20.01.2019 10:00:00 7,0 6,5 2 1 - 1012,9 10 0,0
20.01.2019 09:00:00 3,0 3,0 4 2 - - 10 -
20.01.2019 08:00:00 3,0 2,0 4 2 N - 10 -
20.01.2019 07:00:00 2,6 2,1 2 1 - 1012,4 7 -
20.01.2019 06:00:00 4,0 4,0 5 3 NNE - 10 -
20.01.2019 05:00:00 4,0 4,0 4 2 - - 10 -
20.01.2019 04:00:00 4,5 4,0 2 1 N 1012,8 9 0,0
20.01.2019 03:00:00 6,0 5,0 2 1 - - 10 -
20.01.2019 02:00:00 7,0 6,0 2 1 - - 10 -
20.01.2019 01:00:00 6,5 5,9 2 1 - 1013,4 10 -
20.01.2019 00:00:00 6,0 5,0 2 1 - - 7 -
19.01.2019 23:00:00 8,0 7,0 2 1 E - 10 -
19.01.2019 22:00:00 7,8 7,0 4 2 - 1013,8 10 0,0
19.01.2019 21:00:00 8,0 7,0 2 1 S - 10 -
19.01.2019 20:00:00 8,0 7,0 2 1 - - 10 -
19.01.2019 19:00:00 8,4 7,3 4 2 S 1013,5 10 -
19.01.2019 18:00:00 9,0 8,0 5 3 S - 10 -
19.01.2019 17:00:00 10,0 8,0 8 4 SSE - 10 -
19.01.2019 16:00:00 10,2 7,8 2 1 - 1013,6 10 0,0
19.01.2019 15:00:00 10,0 8,0 2 1 - - 10 -
19.01.2019 14:00:00 11,0 8,0 4 2 S - 10 -
19.01.2019 13:00:00 10,7 8,1 5 3 SSE 1014,7 10 -
19.01.2019 12:00:00 10,0 8,0 8 4 WSW - 10 -
19.01.2019 11:00:00 10,0 8,0 4 2 S - 10 -
19.01.2019 10:00:00 8,8 7,9 4 2 - 1015,2 10 0,0
19.01.2019 09:00:00 6,0 5,0 2 1 - - 10 -
19.01.2019 08:00:00 6,0 5,0 4 2 - - 10 -
19.01.2019 07:00:00 5,1 4,1 5 3 SSE 1014,3 10 -
19.01.2019 06:00:00 3,0 2,0 2 1 - - 10 -
19.01.2019 05:00:00 3,0 2,0 4 2 - - 10 -
19.01.2019 04:00:00 1,9 0,5 4 2 - 1015,3 10 0,0
19.01.2019 03:00:00 - - - - - - - -
19.01.2019 02:00:00 - - - - - - - -
19.01.2019 01:00:00 5,0 2,5 5 3 SE 1015,7 10 -
19.01.2019 00:00:00 5,0 3,0 4 2 - - 10 -
18.01.2019 23:00:00 5,0 3,0 5 3 ESE - 10 -
18.01.2019 22:00:00 4,8 2,3 5 3 SE 1015,8 10 0,0
18.01.2019 21:00:00 5,0 2,0 5 3 ESE - 10 -
18.01.2019 20:00:00 6,0 1,0 2 1 - - 10 -
18.01.2019 19:00:00 7,8 0,8 5 3 WNW 1015,6 10 -
18.01.2019 18:00:00 9,0 1,0 8 4 WNW - 10 -
18.01.2019 17:00:00 11,0 2,0 13 7 WNW - 10 -
18.01.2019 16:00:00 12,0 2,4 13 7 WNW 1015,1 10 0,0
18.01.2019 15:00:00 12,0 2,0 13 7 WNW - 10 -
18.01.2019 14:00:00 12,0 3,0 13 7 WNW - 10 -
18.01.2019 13:00:00 12,6 3,0 15 8 WNW 1015,4 10 -
18.01.2019 12:00:00 12,0 4,0 16 9 WNW - 10 -
18.01.2019 11:00:00 11,0 5,0 11 6 WNW - 10 -
18.01.2019 10:00:00 10,4 8,1 2 1 - 1015,6 10 0,0
18.01.2019 09:00:00 6,0 5,0 2 1 - - 10 -
18.01.2019 08:00:00 5,0 5,0 2 1 - - 7 -
18.01.2019 07:00:00 5,4 4,8 0 0 N 1014,2 5 -
18.01.2019 06:00:00 7,0 7,0 2 1 - - 5 -
18.01.2019 05:00:00 10,0 9,0 4 2 - - 10 -
18.01.2019 04:00:00 9,2 8,4 5 3 E 1014,5 10 0,0
18.01.2019 03:00:00 10,0 9,0 4 2 S - 10 -
18.01.2019 02:00:00 10,0 9,0 8 4 S - 9 -
18.01.2019 01:00:00 10,6 9,2 5 3 WSW 1015,0 9 -
18.01.2019 00:00:00 11,0 8,0 9 5 SW - 10 -
17.01.2019 23:00:00 11,0 8,0 11 6 SW - 10 -
17.01.2019 22:00:00 10,6 8,1 11 6 SW 1015,7 10 0,0
17.01.2019 21:00:00 10,0 8,0 11 6 SSW - 10 -
17.01.2019 20:00:00 10,0 8,0 8 4 SW - 10 -
17.01.2019 19:00:00 9,7 7,8 2 1 - 1015,5 10 -
17.01.2019 18:00:00 11,0 8,0 11 6 SSW - 10 -
17.01.2019 17:00:00 - - - - - - - -
17.01.2019 16:00:00 13,3 9,7 15 8 S 1015,5 10 0,0
17.01.2019 15:00:00 14,0 9,0 11 6 SSW - 10 -
17.01.2019 14:00:00 13,0 9,0 18 10 SSW - 10 -
17.01.2019 13:00:00 13,5 9,8 18 10 S 1016,2 10 -
17.01.2019 12:00:00 14,0 10,0 21 11 SSW - 10 -
17.01.2019 11:00:00 10,0 9,0 4 2 - - 10 -
17.01.2019 10:00:00 9,1 7,9 2 1 - 1017,4 10 0,0
17.01.2019 09:00:00 7,0 6,0 4 2 N - 10 -
17.01.2019 08:00:00 7,0 7,0 4 2 SE - 10 -
17.01.2019 07:00:00 7,4 6,6 4 2 N 1017,0 10 -
17.01.2019 06:00:00 7,0 6,0 4 2 NE - 10 -
17.01.2019 05:00:00 8,0 7,0 2 1 - - 10 -
17.01.2019 04:00:00 8,2 7,2 5 3 NNE 1018,0 10 0,0
17.01.2019 03:00:00 9,0 8,0 2 1 NE - 10 -
17.01.2019 02:00:00 9,0 8,0 4 2 N - 10 -
17.01.2019 01:00:00 8,5 7,4 4 2 - 1019,0 10 -
17.01.2019 00:00:00 9,0 8,0 5 3 N - 10 -
16.01.2019 23:00:00 10,0 8,0 4 2 NE - 10 -
16.01.2019 22:00:00 8,8 7,3 2 1 - 1020,1 10 0,0
16.01.2019 21:00:00 11,0 10,0 8 4 S - 9 -
16.01.2019 20:00:00 10,0 8,0 4 2 - - 10 -
16.01.2019 19:00:00 10,4 7,5 5 3 SW 1019,8 10 -
16.01.2019 18:00:00 12,0 8,0 9 5 S - 10 -
16.01.2019 17:00:00 13,0 7,0 9 5 S - 10 -
16.01.2019 16:00:00 13,9 7,5 15 8 SSW 1020,1 10 0,0
16.01.2019 15:00:00 13,0 8,0 16 9 SSW - 10 -
16.01.2019 14:00:00 13,0 7,0 21 11 SSW - 10 -
16.01.2019 13:00:00 13,4 6,7 21 11 S 1020,9 10 -
16.01.2019 12:00:00 13,0 7,0 21 11 SSW - 10 -
16.01.2019 11:00:00 13,0 7,0 15 8 S - 10 -
16.01.2019 10:00:00 9,8 6,9 9 5 NNE 1022,0 10 0,0
16.01.2019 09:00:00 7,0 6,0 8 4 NNE - 10 -
16.01.2019 08:00:00 3,0 2,0 9 5 NNE - 10 -
16.01.2019 07:00:00 3,5 2,1 5 3 NNE 1021,2 10 -
16.01.2019 06:00:00 5,0 4,0 5 3 N - 10 -
16.01.2019 05:00:00 5,0 4,0 5 3 NNE - 10 -
16.01.2019 04:00:00 5,1 3,8 5 3 NNE 1021,6 10 0,0
16.01.2019 03:00:00 6,0 5,0 8 4 E - 10 -
16.01.2019 02:00:00 6,0 5,0 5 3 NNE - 10 -
16.01.2019 01:00:00 4,9 4,0 2 1 - 1021,9 10 -
16.01.2019 00:00:00 5,0 4,0 5 3 NNE - 10 -
15.01.2019 23:00:00 4,0 2,0 4 2 NE - 10 -
15.01.2019 22:00:00 4,6 3,5 2 1 - 1021,5 10 0,0
15.01.2019 21:00:00 7,0 6,0 2 1 - - 10 -
15.01.2019 20:00:00 8,0 6,0 4 2 NNE - 10 -
15.01.2019 19:00:00 8,8 6,7 4 2 NE 1020,4 10 -
15.01.2019 18:00:00 11,0 7,0 4 2 SW - 10 -
15.01.2019 17:00:00 13,0 7,0 11 6 SSW - 10 -

tt = Température de l'air
td = dewpoint
ff = Vitesse du vent
dd = Direction du vent
ppp = reduced air pressure
vv = visibility
rr = Quantités de précipitations

stations d'obs. à proximité